Tracking 25995 objects as of 20-Aug-2022
HD Live streaming from Space Station
objects crossing your sky now

STARLINK-2713

Track STARLINK-2713 now!
10-day predictions
STARLINK-2713 is classified as:


NORAD ID: 48602
Int'l Code: 2021-041BB
Perigee: 553.2 km
Apogee: 555.5 km
Inclination: 53.1 °
Period: 95.6 minutes
Semi major axis: 6925 km
RCS: Unknown
Launch date: May 15, 2021
Source: United States (US)
Launch site: AIR FORCE EASTERN TEST RANGE (AFETR)
aabbcc
Your satellite tracking list
Your tracking list is empty




NASA's NSSDC Master Catalog

Two Line Element Set (TLE):
1 48602U 21041BB  22231.18446749  .00003234  00000-0  23593-3 0  9998
2 48602  53.0530 185.8422 0001648  70.2572 289.8595 15.06398438 70954
Source of the keplerian elements: AFSPC